Voltar ao catálogo

MIDAS 5 DEB

AtivoPO
NORAD 274·DEBRIS·🇺🇸 United States

Lançado Apr 9, 1962 de Vandenberg Space Force Base

Loading…

Próximas Passagens (próximas 24 horas)

TLE

AtualizadoSource: Space-Track

Época: Sep 7, 2026, 11:24 UTC

1 00274U 62010D   26250.47552112 -.00000068  00000-0 -15006-1 0  9993
2 00274  86.6717 321.7576 0345750  69.1450 294.6114  9.39364601208514

Acompanhe MIDAS 5 DEB em tempo real com AllMySat

Download on the App Store